#timestamp,LO_Frequency,Hit,StdDev 
1457348415.8,286047004.6,N
1457348435.7,286047001.5,N
1457348455.5,286047002.3,N
1457348475.3,286046998.9,N
1457348495.2,286046998.6,N
1457348515.9,286047001.0,N
1457348535.7,286047000.6,N
1457348555.6,286047000.9,N
1457348575.4,286046996.5,N
1457348595.2,286046996.0,N
1457348615.1,286046993.9,N
1457348616.0,286046993.9,N
1457348635.8,286046994.3,N
1457348655.6,286046994.7,N
1457348675.5,286046991.2,N
1457348695.3,286046991.4,N
1457348715.1,286046990.5,N
1457348735.8,286046996.3,N
1457348755.7,286046994.2,N
1457348775.5,286046994.2,N
1457348795.3,286046994.9,N
1457348815.2,286046996.4,N
1457348835.9,286046997.3,N
1457348855.7,286046997.9,N
1457348875.6,286046998.8,N
1457348895.4,286046998.7,N
1457348915.2,286047002.2,N
1457348935.1,286047000.1,N
1457348936.0,286047000.1,N
1457348955.8,286047002.2,N
1457348975.6,286047004.4,N
1457348995.5,286047002.4,N
1457349015.3,286047003.9,N
1457349035.1,286047001.7,N
1457349055.8,286047003.1,N
1457349075.7,286047003.4,N
1457349095.5,286047007.0,N
1457349115.3,286047007.3,N
1457349135.2,286047005.5,N
1457349155.0,286047004.2,N
1457349155.9,286047004.2,N
1457349175.7,286047008.8,N
1457349195.6,286047008.6,N
1457349215.4,286047005.1,N
1457349235.2,286047006.1,N
1457349255.1,286047012.4,N
1457349256.0,286047012.4,N
1457349275.8,286047014.0,N
1457349295.6,286047011.2,N
1457349315.5,286047007.7,N
1457349335.3,286047008.2,N
1457349355.1,286047008.1,N
1457349375.9,286047005.3,N
1457349395.7,286047005.2,N
1457349415.5,286047007.2,N
1457349435.3,286047002.7,N
1457349455.2,286046998.1,N
1457349475.0,286046997.0,N
1457349475.9,286046997.0,N
1457349495.7,286046999.4,N
1457349515.6,286046999.4,N
1457349535.4,286046995.3,N
1457349555.2,286046997.8,N
1457349575.1,286046995.6,N
1457349576.0,286046995.6,N
1457349595.8,286046993.4,N
1457349615.6,286046997.3,N
1457349635.5,286046997.8,N
1457349655.3,286046998.0,N
1457349675.1,286046995.9,N
1457349695.9,286046997.3,N
1457349715.7,286046997.2,N
1457349735.5,286046995.5,N
1457349755.4,286046997.3,N
1457349775.2,286046995.6,N
1457349795.0,286046995.5,N
1457349795.9,286046995.5,N
1457349815.8,286046992.1,N
1457349835.6,286046990.3,N
1457349855.4,286046990.6,N
1457349875.3,286046993.2,N
1457349895.1,286046993.2,N
1457349896.0,286046993.2,N
1457349915.8,286046991.2,N
1457349935.6,286046993.2,N
1457349955.5,286046987.0,Y
1457349975.3,286046993.8,P
1457349995.2,286046997.6,N
1457350015.9,286046999.9,N
1457350035.7,286046999.1,N
1457350055.5,286046997.3,N
1457350075.4,286046997.6,N
1457350095.2,286046994.9,N
1457350115.0,286046997.9,N
1457350115.9,286046997.9,N
1457350135.8,286046996.3,N
1457350155.6,286046996.2,N
1457350175.4,286046997.8,N
1457350195.3,286046997.7,N
1457350215.1,286046999.0,N
1457350216.0,286046999.0,N
1457350235.8,286046999.6,N
1457350255.7,286046999.1,N
1457350275.5,286046996.9,N
1457350295.3,286046997.6,N
1457350315.2,286046997.3,N
1457350335.9,286046999.2,N
1457350355.7,286046995.5,Y
1457350375.6,286046998.5,P
1457350395.4,286046998.8,N
1457350415.2,286047000.0,N
1457350435.0,286047000.4,N
1457350436.0,286047000.4,N
1457350455.8,286047000.3,N
1457350475.6,286047002.0,N
1457350495.4,286047000.0,N
1457350515.3,286046998.9,N
1457350535.1,286046995.4,Y
1457350555.8,286047001.1,P
1457350575.7,286046998.1,N
1457350595.5,286046998.4,N
1457350615.3,286047001.1,N
1457350635.2,286047001.6,N
1457350655.9,286047004.1,N
1457350675.7,286047002.3,N
1457350695.6,286047001.7,N
1457350715.4,286047000.5,N
1457350735.2,286047002.1,N
1457350755.1,286047001.3,N
1457350756.0,286047001.3,N
1457350775.8,286047003.0,N
1457350795.6,286047002.9,N
1457350815.5,286047003.5,N
1457350835.3,286047004.9,Y
1457350855.1,286047007.0,P
1457350875.9,286047010.7,P
1457350895.7,286047010.4,N
1457350915.5,286047008.9,N
1457350935.3,286047006.7,N
1457350955.2,286047006.8,N
1457350975.0,286047002.9,N
1457350975.9,286047002.9,N
1457350995.7,286047009.2,N
1457351015.6,286047005.6,N
1457351035.4,286047003.7,N
1457351055.2,286047005.5,N
1457351075.1,286047005.9,N
1457351076.0,286047005.9,N
1457351095.8,286047005.0,N
1457351115.6,286047006.6,N
1457351135.5,286047009.0,Y
1457351155.3,286047002.4,P
1457351175.1,286047000.9,N
1457351195.9,286046999.6,N
1457351215.7,286046996.9,N
1457351235.5,286046996.6,N
1457351255.4,286046999.6,N
1457351275.2,286047000.4,N
1457351295.0,286046999.8,N
1457351295.9,286046999.8,N
1457351315.8,286047002.1,N
1457351335.6,286047000.2,N
1457351355.4,286047000.2,N
1457351375.2,286047001.4,N
1457351395.1,286047004.3,N
1457351396.0,286047004.3,N
1457351415.8,286047002.2,N
1457351435.6,286047002.7,N
1457351455.5,286046998.1,N
1457351475.3,286046998.1,N
1457351495.1,286046998.9,N
1457351515.9,286047000.7,N
1457351535.7,286046997.7,N
1457351555.5,286046997.7,N
1457351575.4,286046992.0,Y
1457351595.2,286046992.9,P
1457351615.0,286046990.6,N
1457351615.9,286046990.6,N
1457351635.8,286046993.6,N
1457351655.6,286046995.8,N
1457351675.4,286046996.9,N
1457351695.3,286046998.1,N
1457351715.1,286047001.2,N
1457351716.0,286047001.2,N
1457351735.8,286047003.9,N
1457351755.7,286047001.7,N
1457351775.5,286047003.2,N
1457351795.3,286047005.6,N
1457351815.2,286047006.4,N
1457351835.9,286047006.2,N
1457351855.7,286047009.2,N
1457351875.5,286047008.7,N
1457351895.4,286047007.3,N
1457351915.2,286047009.0,N
1457351935.0,286047006.5,N
1457351935.9,286047006.5,N
1457351955.8,286047007.0,N
1457351975.6,286047006.7,N
1457351995.4,286047004.9,N
